Location: Nantong Television Tower
(32.0188°N, 120.8512°E)
Time: 00:18:15
(UTC+08:00)

Vanguard 3 - Visible Passes

Search period start: 30 June 2016 00:00
Search period end: 10 July 2016 00:00
Orbit: 510 x 3266 km, 33.3° (Epoch: 27 June)

Date Brightness Start Highest point End Pass type
(mag) Time Alt. Az. Time Alt. Az. Time Alt. Az.
30 Jun 10.4 01:31:31 22° SSE 01:32:59 23° SSE 01:42:05 10° ESE visible
30 Jun 9.3 03:36:06 16° SW 03:47:47 51° SSE 03:56:14 10° E visible
01 Jul 10.9 00:21:48 13° SE 00:21:48 13° SE 00:24:39 10° ESE visible
01 Jul 9.8 02:26:22 28° SSW 02:32:53 39° SSE 02:42:42 10° E visible
02 Jul 10.3 01:16:34 28° SSE 01:17:35 28° SSE 01:28:11 10° E visible
02 Jul 9.3 03:21:09 21° SW 03:32:36 59° SSE 03:41:51 10° E visible
03 Jul 10.8 00:06:43 17° SE 00:06:43 17° SE 00:11:45 10° ESE visible
03 Jul 9.8 02:11:17 35° SSW 02:17:30 46° SSE 02:28:20 10° E visible
03 Jul 8.9 04:16:59 10° WSW 04:32:09 80° SSE 04:40:24 10° ENE visible
04 Jul 10.2 01:01:20 34° SSE 01:02:02 34° SSE 01:13:57 10° E visible
04 Jul 9.3 03:05:53 24° SW 03:17:18 66° SSE 03:27:21 10° E visible
04 Jul 10.7 23:51:20 21° ESE 23:51:20 21° ESE 23:58:00 10° E visible
05 Jul 9.7 01:55:52 40° SSW 02:01:58 53° SSE 02:13:48 10° E visible
05 Jul 9.0 04:00:47 10° WSW 04:17:00 85° SSE 04:25:57 10° E visible
06 Jul 10.1 00:45:46 40° SSE 00:46:18 40° SSE 00:59:26 10° E visible
06 Jul 9.4 02:50:19 26° WSW 03:01:54 73° SSE 03:12:47 10° ENE visible
06 Jul 10.6 23:35:35 25° ESE 23:35:35 25° ESE 23:43:45 10° E visible
07 Jul 9.7 01:40:06 44° SSW 01:46:19 59° SSE 01:59:08 10° ENE visible
07 Jul 9.2 03:44:38 10° WSW 04:01:46 89° S 04:11:27 10° E visible
07 Jul 11.2 22:25:18 10° ESE 22:25:18 10° ESE 22:25:25 10° ESE visible
08 Jul 10.0 00:29:48 46° SSE 00:30:26 46° SSE 00:44:44 10° E visible
08 Jul 9.4 02:34:20 27° WSW 02:46:23 79° SSE 02:58:08 10° ENE visible
08 Jul 10.5 23:19:24 30° ESE 23:19:24 30° ESE 23:29:09 10° E visible
09 Jul 9.7 01:23:54 47° SSW 01:30:32 66° SSE 01:44:21 10° ENE visible
09 Jul 9.3 03:28:27 10° W 03:46:28 88° N 03:56:54 10° E visible
09 Jul 11.1 22:08:51 14° ESE 22:08:51 14° ESE 22:11:26 10° E visible
